This demonstration page uses our WeatherBlox Daily Observations layout. Learn more.

Hourly Observations for August 18, 2016

Temp ( °F °C ) Dew Point ( °F °C ) Humidity (%) Winds ( mph kmh ) Pressure ( in mb ) Visibility ( mi km ) Precip ( " mm )
12:54 am 00:54 Clear 77 25 72 22.2 85 85 SE 5 7 29.98 1015 10 16.0934 0 0
1:54 am 01:54 Clear 73 22.8 69 20.6 87 87 S 7 11 29.97 1015 10 16.0934 0 0
2:54 am 02:54 Clear 72 22.2 68 20 87 87 S 5 7 29.96 1015 10 16.0934 0 0
3:54 am 03:54 Clear 72 22.2 67 19.4 84 84 S 9 15 29.95 1014 10 16.0934 0 0
4:54 am 04:54 Mostly Cloudy with Thunderstorms 74 23.3 67 19.4 79 79 SSW 9 15 29.96 1014 10 16.0934 0 0
5:44 am 05:44 Partly Cloudy with Nearby Thunderstorms 73 23 68 20 83 83 SSE 14 22 29.97 1015 9 14.48406 0 0
5:54 am 05:54 Partly Cloudy with Nearby Thunderstorms 73 22.8 68 20 84 84 S 15 24 29.94 1014 9 14.48406 0 0.0254
6:44 am 06:44 Mostly Cloudy 73 23 66 19 78 78 S 17 28 29.94 1014 10 16.0934 0 0
6:54 am 06:54 Mostly Sunny 74 23.3 67 19.4 79 79 S 18 30 29.94 1014 10 16.0934 0 0.0254
7:54 am 07:54 Partly Cloudy 74 23.3 66 18.9 76 76 S 12 19 29.96 1015 10 16.0934 0 0
8:54 am 08:54 Sunny 76 24.4 67 19.4 74 74 S 12 19 29.95 1014 10 16.0934 0 0
9:54 am 09:54 Sunny 81 27.2 67 19.4 62 62 WSW 10 17 29.93 1014 10 16.0934 0 0
10:54 am 10:54 Sunny 83 28.3 69 20.6 63 63 SSW 13 20 29.92 1013 10 16.0934 0 0
11:54 am 11:54 Sunny 82 27.8 67 19.4 60 60 SSW 14 22 29.92 1013 10 16.0934 0 0
12:54 pm 12:54 Sunny 87 30.6 68 20 53 53 SW 14 22 29.9 1013 10 16.0934 0 0
1:54 pm 13:54 Sunny 89 31.7 69 20.6 52 52 SSW 14 22 29.91 1013 10 16.0934 0 0
2:54 pm 14:54 Sunny 92 33.3 67 19.4 44 44 SSW 14 22 29.91 1013 10 16.0934 0 0
3:54 pm 15:54 Sunny 93 33.9 67 19.4 42 42 SSW 18 30 29.88 1012 10 16.0934 0 0
4:54 pm 16:54 Sunny 90 32.2 70 21.1 52 52 S 14 22 29.86 1011 10 16.0934 0 0
5:54 pm 17:54 Sunny 90 32.2 70 21.1 52 52 S 15 24 29.85 1011 10 16.0934 0 0
6:54 pm 18:54 Sunny 89 31.7 68 20 50 50 S 13 20 29.83 1010 10 16.0934 0 0
7:54 pm 19:54 Sunny 86 30 68 20 55 55 S 8 13 29.84 1010 10 16.0934 0 0
8:54 pm 20:54 Clear 82 27.8 69 20.6 65 65 S 9 15 29.84 1011 10 16.0934 0 0
9:54 pm 21:54 Clear 79 26.1 69 20.6 72 72 S 10 17 29.84 1011 10 16.0934 0 0
10:54 pm 22:54 Clear 79 26.1 68 20 69 69 S 9 15 29.87 1012 10 16.0934 0 0
11:54 pm 23:54 Clear 77 25 68 20 74 74 S 12 19 29.88 1012 10 16.0934 0 0

Powered by AerisWeather